[[{"header":{"parameterUnit":"m.s-1","parameterCategory":1,"la1":30.2991,"la2":30.254,"lo1":-89.0895,"lo2":-89.0444,"dy":0.0017,"dx":0.0017,"nx":28,"ny":28,"refTime":"2024-08-07T03:00:00:Z","depth":0,"parameterNumber":2,"parameterNumberName":"U-component_of_WINDS"},"data":[0,0,0,0,0,0,0,0,0,0,0,0,0,0,0,0,0,0,0,0,0,0,0,0,0,0,0,0,0,0,0,0,0,0,0,0,0,0,0,0,0,0,0,0,0,0,0,0,0,0,0,0,0,0,0,0,0,0,3.7911,3.7911,0,3.7935,3.7936,3.7936,3.785,3.7848,3.7845,3.7843,3.7868,3.7871,3.7874,0,0,0,0,0,0,0,0,0,0,0,0,0,3.7792,3.7795,3.7911,3.7911,3.7911,3.7935,3.7936,3.7936,3.7851,3.7848,3.7845,3.7842,3.7867,3.787,3.7874,0,0,0,0,0,0,0,0,0,0,0,0,0,3.7833,3.7796,3.7911,3.7872,3.7869,3.7935,3.7936,3.7936,3.7852,3.7848,3.7844,3.784,3.7866,3.787,3.7874,3.798,0,0,3.7888,3.789,0,0,0,0,0,0,0,0,3.7831,3.7837,3.7877,3.7875,3.7871,3.7886,3.7903,3.7951,3.7853,3.7858,3.7843,3.7838,3.7877,3.788,3.7893,3.7981,3.7982,3.7889,3.7892,3.7894,3.7895,0,0,0,0,0,0,0,3.7828,3.7836,3.792,3.7878,3.7874,3.7854,3.7855,3.7912,3.7889,3.7857,3.7851,3.7855,3.7874,3.7889,3.7893,3.7982,3.7889,3.7893,3.7896,3.7897,3.8161,3.8165,0,0,0,0,0,0,3.783,3.7834,3.792,3.7921,3.7841,3.7859,3.7861,3.7885,3.7888,3.7885,3.7858,3.7851,3.7883,3.7888,3.7894,3.8019,3.7894,3.7898,3.79,3.8157,3.8162,3.8167,0,0,0,0,0,0,3.7828,3.7839,3.7919,3.7876,3.7885,3.7865,3.7893,3.7888,3.7902,3.7889,3.7884,3.7878,3.788,3.7887,3.796,3.8019,3.79,3.7904,3.8152,3.8158,3.8164,3.827,0,0,0,0,0,0,3.7825,3.7838,3.7877,3.7878,3.7887,3.7984,3.7897,3.7891,3.791,3.7901,3.7905,3.7903,3.7878,3.7953,3.7964,3.8023,3.7908,3.8146,3.8155,3.8162,3.8261,3.8279,3.8295,0,0,0,0,0,3.7821,3.7905,3.788,3.7891,3.7936,3.7987,3.7993,3.7963,3.7915,3.7955,3.7947,3.7902,3.8011,3.7962,3.7973,3.8034,3.8143,3.8152,3.8162,3.8254,3.8276,3.8294,0,0,0,0,0,0,3.7911,3.7904,3.7876,3.7963,3.7977,3.7973,3.8022,3.7987,3.8014,3.8004,3.7966,3.7967,3.8047,3.8048,3.7993,3.8138,3.8069,3.8081,3.8135,3.8155,3.8172,3.817,3.7911,0,0,0,0,0,3.7942,3.7984,3.7976,3.8053,3.8062,3.8041,3.8062,3.8038,3.8051,3.8056,3.8053,3.8067,3.8105,3.813,3.8163,3.8261,3.8262,3.8309,3.8326,3.834,3.8351,3.8406,3.8427,3.8198,3.8198,3.8198,0,0,3.8004,3.8005,3.8034,3.8071,3.8079,3.8125,3.8046,3.8097,3.8131,3.8063,3.8132,3.8131,3.8145,3.8231,3.8269,3.8234,3.8415,3.8352,3.8363,3.8367,3.8418,3.8439,3.8459,3.8205,3.8203,3.8202,0,0,3.8141,3.8146,3.8212,3.8223,3.8236,3.8222,3.8239,3.8241,3.8238,3.8307,3.8258,3.8299,3.8363,3.8376,3.839,3.8537,3.8498,3.8549,3.8637,3.8691,3.8709,3.8724,3.8779,3.8798,3.856,3.8561,3.8561,0,3.8217,3.8283,3.8251,3.8306,3.8325,3.8268,3.8336,3.8347,3.8371,3.8386,3.8346,3.8429,3.8433,3.8523,3.856,3.8573,3.8592,3.8548,3.8709,3.8724,3.8739,3.879,3.881,3.8567,3.8566,3.8566,3.8565,0,3.8377,3.8424,3.8476,3.8502,3.8527,3.8588,3.8566,3.8596,3.8571,3.8562,3.8634,3.8639,3.8673,3.8693,3.8668,3.8781,3.8759,3.8715,3.8644,3.8767,3.8815,3.8834,3.8576,3.8574,3.8572,3.857,0,0,3.8569,3.8579,3.8599,3.8611,3.8624,3.866,3.872,3.8755,3.8782,3.8801,3.8852,3.891,3.887,3.8887,3.8864,3.8911,3.903,3.8862,3.8861,3.8894,3.9158,3.9191,3.9215,3.9005,3.9008,3.9011,3.9157,0,3.8705,3.8808,3.8783,3.8885,3.893,3.8878,3.8931,3.8945,3.8939,3.8977,3.8971,3.9013,3.8957,3.8967,3.9012,3.9006,3.9083,3.8995,3.9053,3.9055,3.9052,3.9239,3.9274,3.9411,3.9175,3.9178,3.9181,0,3.8877,3.8905,3.9013,3.9021,3.9039,3.9087,3.9119,3.9155,3.9171,3.9164,3.9185,3.9154,3.9215,3.9145,3.923,3.9171,3.9193,3.9195,3.9199,3.9204,3.9125,3.925,3.9454,3.9475,3.9209,3.9207,3.9205,0,3.9009,3.9074,3.9147,3.9159,3.917,3.9206,3.9212,3.9224,3.9248,3.9276,3.9292,3.9327,3.9346,3.9374,3.9354,3.9304,3.9443,3.937,3.944,3.9441,3.9471,3.947,3.9683,3.9485,3.9484,3.9484,3.9484,0,3.9164,3.9233,3.9207,3.9252,3.9328,3.9299,3.9375,3.9375,3.9388,3.9433,3.939,3.9434,3.9404,3.9446,3.943,3.9504,3.9513,3.951,3.9505,3.9514,3.9515,3.9528,3.9519,3.9489,3.9488,3.9487,3.9486,0,3.9324,3.9309,3.9386,3.9392,3.9395,3.9451,3.9456,3.9499,3.9491,3.9549,3.9561,3.955,3.9597,3.958,3.9629,3.9619,3.9715,3.9697,3.971,3.9705,3.9777,3.9771,4.0007,4.0037,3.9818,3.982,3.9822,0,3.9424,3.9476,3.9488,3.9516,3.9526,3.9571,3.9596,3.957,3.9598,3.9622,3.9663,3.9707,3.974,3.9819,3.9815,3.9854,3.9838,3.9918,3.9843,3.9852,3.9841,3.9839,3.9845,3.9933,3.9936,3.9938,3.9939,0,3.9604,3.9596,3.9633,3.967,3.9701,3.9728,3.9752,3.9777,3.9753,3.9787,3.9835,3.9862,3.9915,3.996,3.9995,4.0003,3.9968,3.9963,3.9982,3.9992,3.9998,3.9997,3.9752,3.9958,3.9956,3.9954,3.9953,3.9953,3.9738,3.9783,3.98,3.9844,3.9859,3.9883,3.9925,3.9924,3.9964,4.0005,3.9988,4.0045,4.0062,4.0107,4.012,4.0165,4.0134,4.016,4.0167,4.0174,4.0184,3.9991,4.0171,4.0171,4.017,4.017,4.0169,0,3.9918,3.9927,3.9968,4.0003,4.0039,4.0004,4.0029,4.0062,4.0112,4.0132,4.0167,4.0225,4.0269,4.0271,4.0312,4.0348,4.0334,4.036,4.0358,4.0361,4.0209,4.0189,4.0372,4.0372,4.0372,4.0372,4.0371,4.0371,4.0015,4.009,4.0084,4.0167,4.0175,4.0231,4.0249,4.0272,4.0288,4.0354,4.0391,4.0392,4.0406,4.0449,4.0489,4.0488,4.0506,4.0539,4.0533,4.0391,4.0371,4.0352,4.0333,4.0543,4.0543,4.0681,4.0682,4.0683]},{"header":{"parameterUnit":"m.s-1","parameterCategory":1,"la1":30.2991,"la2":30.254,"lo1":-89.0895,"lo2":-89.0444,"dy":0.0017,"dx":0.0017,"nx":28,"ny":28,"refTime":"2024-08-07T03:00:00:Z","depth":0,"parameterNumber":3,"parameterNumberName":"V-component_of_WINDS"},"data":[0,0,0,0,0,0,0,0,0,0,0,0,0,0,0,0,0,0,0,0,0,0,0,0,0,0,0,0,0,0,0,0,0,0,0,0,0,0,0,0,0,0,0,0,0,0,0,0,0,0,0,0,0,0,0,0,0,0,-4.3079,-4.3079,0,-4.3072,-4.3072,-4.3072,-4.3056,-4.3056,-4.3055,-4.3055,-4.3046,-4.3046,-4.3046,0,0,0,0,0,0,0,0,0,0,0,0,0,-4.3079,-4.3079,-4.3079,-4.3079,-4.3079,-4.3072,-4.3072,-4.3072,-4.3056,-4.3056,-4.3055,-4.3055,-4.3046,-4.3046,-4.3046,0,0,0,0,0,0,0,0,0,0,0,0,0,-4.3076,-4.3079,-4.3079,-4.307,-4.3069,-4.3072,-4.3072,-4.3071,-4.3056,-4.3056,-4.3055,-4.3055,-4.3046,-4.3046,-4.3046,-4.3056,0,0,-4.3046,-4.3046,0,0,0,0,0,0,0,0,-4.3076,-4.3076,-4.3072,-4.3071,-4.307,-4.3064,-4.3068,-4.3066,-4.3056,-4.3061,-4.3055,-4.3055,-4.3052,-4.3052,-4.3051,-4.3055,-4.3055,-4.3046,-4.3046,-4.3046,-4.3046,0,0,0,0,0,0,0,-4.3076,-4.3076,-4.3076,-4.3072,-4.3071,-4.3067,-4.3066,-4.3068,-4.3059,-4.3061,-4.306,-4.3059,-4.3052,-4.3051,-4.3051,-4.3055,-4.3046,-4.3046,-4.3046,-4.3046,-4.3067,-4.3067,0,0,0,0,0,0,-4.3078,-4.3077,-4.3076,-4.3076,-4.3072,-4.3067,-4.3066,-4.3067,-4.3059,-4.3058,-4.3059,-4.3058,-4.3052,-4.3051,-4.3051,-4.3061,-4.3046,-4.3046,-4.3046,-4.3066,-4.3067,-4.3067,0,0,0,0,0,0,-4.3078,-4.3078,-4.3077,-4.3076,-4.3075,-4.3067,-4.3068,-4.3067,-4.3066,-4.3058,-4.3057,-4.3061,-4.3051,-4.3051,-4.3055,-4.3061,-4.3046,-4.3046,-4.3066,-4.3066,-4.3067,-4.3083,0,0,0,0,0,0,-4.3078,-4.3078,-4.3082,-4.3076,-4.3076,-4.3081,-4.3069,-4.3067,-4.3067,-4.3065,-4.3059,-4.3058,-4.3051,-4.3055,-4.3055,-4.3061,-4.3047,-4.3065,-4.3066,-4.3067,-4.3082,-4.3084,-4.3086,0,0,0,0,0,-4.3078,-4.3086,-4.3082,-4.3082,-4.308,-4.3081,-4.3081,-4.3073,-4.3067,-4.3071,-4.3066,-4.3058,-4.3061,-4.3055,-4.3055,-4.3061,-4.3064,-4.3066,-4.3067,-4.3081,-4.3084,-4.3086,0,0,0,0,0,0,-4.3092,-4.3085,-4.3081,-4.3087,-4.3085,-4.3079,-4.3083,-4.3077,-4.3076,-4.3074,-4.3065,-4.3063,-4.3069,-4.3066,-4.306,-4.3071,-4.3061,-4.3062,-4.3072,-4.3075,-4.3077,-4.3077,-4.3047,0,0,0,0,0,-4.3096,-4.3098,-4.3092,-4.3098,-4.3098,-4.3091,-4.3091,-4.3086,-4.3083,-4.3081,-4.3077,-4.3074,-4.3074,-4.3075,-4.3074,-4.3082,-4.308,-4.3086,-4.3088,-4.309,-4.3091,-4.3095,-4.3097,-4.3071,-4.3071,-4.3071,0,0,-4.3104,-4.31,-4.3102,-4.3101,-4.3099,-4.3101,-4.309,-4.3092,-4.3094,-4.3082,-4.3085,-4.3082,-4.3078,-4.3084,-4.3087,-4.3082,-4.3098,-4.3092,-4.3093,-4.3093,-4.3096,-4.3099,-4.3101,-4.3072,-4.3072,-4.3072,0,0,-4.3119,-4.3117,-4.3122,-4.312,-4.3117,-4.3113,-4.3114,-4.3109,-4.3107,-4.3111,-4.3102,-4.3104,-4.3104,-4.3102,-4.3101,-4.3117,-4.311,-4.3118,-4.3128,-4.3132,-4.3134,-4.3136,-4.3142,-4.3144,-4.3119,-4.3119,-4.3119,0,-4.3128,-4.3132,-4.3125,-4.3129,-4.3128,-4.3119,-4.3124,-4.3122,-4.312,-4.3119,-4.3114,-4.3116,-4.3113,-4.3118,-4.3122,-4.3122,-4.3123,-4.3117,-4.3135,-4.3137,-4.3138,-4.3143,-4.3145,-4.312,-4.312,-4.3119,-4.3119,0,-4.3144,-4.3146,-4.3151,-4.3149,-4.315,-4.3154,-4.3148,-4.3149,-4.3144,-4.314,-4.3144,-4.3141,-4.314,-4.3141,-4.3136,-4.3146,-4.3143,-4.3137,-4.3127,-4.3142,-4.3146,-4.3148,-4.3121,-4.3121,-4.312,-4.312,0,0,-4.3165,-4.3161,-4.3163,-4.3162,-4.3159,-4.3161,-4.3165,-4.3165,-4.3166,-4.3165,-4.3168,-4.317,-4.3164,-4.3163,-4.3158,-4.3161,-4.3174,-4.3155,-4.3154,-4.3158,-4.3185,-4.3189,-4.3191,-4.317,-4.317,-4.3171,-4.3185,0,-4.3179,-4.3186,-4.3181,-4.3188,-4.3191,-4.3183,-4.3186,-4.3185,-4.3182,-4.3183,-4.3179,-4.3181,-4.3173,-4.3173,-4.3176,-4.3172,-4.3179,-4.3171,-4.3172,-4.3172,-4.3172,-4.3194,-4.3198,-4.3212,-4.3187,-4.3187,-4.3187,0,-4.3195,-4.3196,-4.3204,-4.3201,-4.3202,-4.3205,-4.3205,-4.3207,-4.3205,-4.3203,-4.3203,-4.3197,-4.32,-4.3192,-4.3197,-4.3192,-4.3192,-4.319,-4.3191,-4.3189,-4.318,-4.3192,-4.3216,-4.3218,-4.319,-4.319,-4.319,0,-4.321,-4.3212,-4.3218,-4.3218,-4.3215,-4.3217,-4.3216,-4.3214,-4.3215,-4.3215,-4.3215,-4.3215,-4.3215,-4.3216,-4.321,-4.3205,-4.3216,-4.3207,-4.3213,-4.3213,-4.3215,-4.3214,-4.3238,-4.3217,-4.3217,-4.3217,-4.3217,0,-4.3225,-4.323,-4.3224,-4.3227,-4.3233,-4.3228,-4.3233,-4.3231,-4.323,-4.3232,-4.3226,-4.3228,-4.3221,-4.3223,-4.3219,-4.3223,-4.3223,-4.3221,-4.322,-4.3221,-4.3221,-4.322,-4.3219,-4.3217,-4.3217,-4.3217,-4.3217,0,-4.3241,-4.3237,-4.3243,-4.324,-4.324,-4.3244,-4.3242,-4.3244,-4.3242,-4.3245,-4.3245,-4.3241,-4.3243,-4.3238,-4.3238,-4.3236,-4.3242,-4.324,-4.3243,-4.3242,-4.3248,-4.3247,-4.327,-4.3273,-4.3252,-4.3252,-4.3252,0,-4.325,-4.3254,-4.3252,-4.3254,-4.3253,-4.3256,-4.3257,-4.3252,-4.3253,-4.3253,-4.3255,-4.3257,-4.3258,-4.3261,-4.3257,-4.3258,-4.3255,-4.3263,-4.3255,-4.3257,-4.3254,-4.3254,-4.3254,-4.3265,-4.3265,-4.3265,-4.3265,0,-4.3267,-4.3265,-4.3267,-4.3269,-4.327,-4.3271,-4.3271,-4.3273,-4.3268,-4.327,-4.3272,-4.3273,-4.3274,-4.3276,-4.3276,-4.3274,-4.3269,-4.3268,-4.327,-4.327,-4.3272,-4.327,-4.3246,-4.3267,-4.3267,-4.3267,-4.3267,-4.3267,-4.3279,-4.3282,-4.3282,-4.3284,-4.3285,-4.3285,-4.3288,-4.3286,-4.3288,-4.3289,-4.3287,-4.329,-4.3289,-4.3289,-4.3288,-4.329,-4.3286,-4.3288,-4.3289,-4.3289,-4.329,-4.3273,-4.329,-4.329,-4.329,-4.329,-4.329,0,-4.3295,-4.3294,-4.3297,-4.3298,-4.33,-4.3296,-4.3297,-4.3299,-4.3302,-4.3302,-4.3303,-4.3306,-4.3308,-4.3305,-4.3306,-4.3309,-4.3306,-4.3309,-4.3308,-4.3308,-4.3293,-4.3292,-4.3311,-4.3311,-4.3311,-4.3311,-4.3311,-4.3311,-4.3303,-4.3308,-4.3307,-4.3313,-4.3312,-4.3316,-4.3316,-4.3317,-4.3317,-4.3321,-4.3323,-4.3321,-4.332,-4.3322,-4.3323,-4.3322,-4.3323,-4.3327,-4.3325,-4.3311,-4.3309,-4.3307,-4.3305,-4.3327,-4.3327,-4.3339,-4.3339,-4.3339]}]]